TimePST,TemperatureF,Dew PointF,Humidity,Sea Level PressureIn,VisibilityMPH,Wind Direction,Wind SpeedMPH,Gust SpeedMPH,PrecipitationIn,Events,Conditions,WindDirDegrees,DateUTC
12:56 AM,50.0,46.0,86,30.27,10.0,Calm,Calm,-,0.00,Rain,Light Rain,0,2012-11-13 08:56:00
1:56 AM,51.1,46.0,83,30.27,10.0,Calm,Calm,-,0.00,,Overcast,0,2012-11-13 09:56:00
2:56 AM,50.0,46.9,89,30.26,10.0,Calm,Calm,-,0.00,,Overcast,0,2012-11-13 10:56:00
3:22 AM,50.0,46.4,87,30.26,10.0,Calm,Calm,-,N/A,,Overcast,0,2012-11-13 11:22:00
3:56 AM,51.1,48.0,89,30.25,10.0,Calm,Calm,-,N/A,,Overcast,0,2012-11-13 11:56:00
4:24 AM,50.0,46.4,87,30.26,10.0,Calm,Calm,-,N/A,,Overcast,0,2012-11-13 12:24:00
4:56 AM,50.0,48.0,93,30.25,10.0,Calm,Calm,-,N/A,,Overcast,0,2012-11-13 12:56:00
5:56 AM,50.0,48.0,93,30.24,10.0,Calm,Calm,-,N/A,,Overcast,0,2012-11-13 13:56:00
6:56 AM,50.0,46.9,89,30.23,10.0,Calm,Calm,-,N/A,,Mostly Cloudy,0,2012-11-13 14:56:00
7:56 AM,50.0,48.0,93,30.24,10.0,Calm,Calm,-,N/A,,Overcast,0,2012-11-13 15:56:00
8:56 AM,52.0,48.0,86,30.23,10.0,Calm,Calm,-,N/A,,Overcast,0,2012-11-13 16:56:00
9:56 AM,54.0,48.0,80,30.23,10.0,Calm,Calm,-,N/A,,Overcast,0,2012-11-13 17:56:00
10:56 AM,57.9,48.9,72,30.22,10.0,NW,4.6,-,N/A,,Overcast,320,2012-11-13 18:56:00
11:56 AM,61.0,51.1,70,30.19,10.0,North,3.5,-,N/A,,Mostly Cloudy,360,2012-11-13 19:56:00
12:56 PM,63.0,52.0,67,30.15,10.0,Calm,Calm,-,N/A,,Mostly Cloudy,0,2012-11-13 20:56:00
1:56 PM,64.0,52.0,65,30.13,10.0,North,5.8,-,N/A,,Overcast,350,2012-11-13 21:56:00
2:56 PM,64.0,53.1,67,30.12,10.0,North,4.6,-,N/A,,Overcast,10,2012-11-13 22:56:00
3:56 PM,64.0,53.1,67,30.12,10.0,North,3.5,-,N/A,,Partly Cloudy,360,2012-11-13 23:56:00
4:56 PM,61.0,53.1,75,30.12,10.0,WNW,4.6,-,N/A,,Clear,290,2012-11-14 00:56:00
5:56 PM,57.0,51.1,81,30.12,10.0,Calm,Calm,-,N/A,,Clear,0,2012-11-14 01:56:00
6:56 PM,55.0,51.1,86,30.12,10.0,Calm,Calm,-,N/A,,Clear,0,2012-11-14 02:56:00
7:56 PM,53.1,50.0,89,30.12,10.0,Calm,Calm,-,N/A,,Clear,0,2012-11-14 03:56:00
8:56 PM,52.0,48.9,89,30.12,10.0,Calm,Calm,-,N/A,,Clear,0,2012-11-14 04:56:00
9:56 PM,50.0,46.9,89,30.13,10.0,Calm,Calm,-,N/A,,Clear,0,2012-11-14 05:56:00
10:56 PM,46.9,45.0,93,30.13,10.0,Calm,Calm,-,N/A,,Clear,0,2012-11-14 06:56:00
11:56 PM,46.9,46.0,97,30.14,7.0,Calm,Calm,-,N/A,,Clear,0,2012-11-14 07:56:00